EW2812 Weather Reports


time (UTC)temp
C
wind
direction
speed
KPH
gust
KPH
rain 1hr
cm
rain 24hr
cm
rain mn
cm
humidity
%
barometer
mb
20260510113051 -17 311 0.0 0.0 0.00 0.00 0.00 1016.3
20260510111605 -17 29 0.0 0.0 0.00 0.00 0.00 1016.3
20260510110041 -17 355 0.0 0.0 0.00 0.00 0.00 1016.2
20260510104539 -17 15 0.0 0.0 0.00 0.00 0.00 1016.3
20260510103036 -17 24 0.0 0.0 0.00 0.00 0.00 1016.3
20260510101533 -17 37 0.0 0.0 0.00 0.00 0.00 1016.3
20260510100026 -17 46 0.0 0.0 0.00 0.00 0.00 1016.4
20260510094523 -17 51 0.0 0.0 0.00 0.00 0.00 1016.4
20260510093027 -17 17 0.0 0.0 0.00 0.00 0.00 1016.4
20260510091515 -17 317 0.0 0.0 0.00 0.00 0.00 1016.6
20260510090011 -17 30 0.0 0.0 0.00 0.00 0.00 1016.7
20260510084505 -17 15 0.0 0.0 0.00 0.00 0.00 1016.8
20260510083111 -17 340 0.0 0.0 0.00 0.00 0.00 1016.7
20260510081608 -17 345 0.0 0.0 0.00 0.00 0.00 1016.7
20260510080054 -17 76 0.0 0.0 0.00 0.00 0.00 1016.8
20260510074603 -17 30 0.0 0.0 0.00 0.00 0.00 1016.7
20260510073052 -17 315 0.0 0.0 0.00 0.00 0.00 1016.7
20260510071547 -17 309 0.0 0.0 0.00 0.00 0.00 1016.8
20260510070043 -17 22 0.0 0.0 0.00 0.00 0.00 1016.7
20260510064540 -17 321 0.0 0.0 0.00 0.00 0.00 1016.7
20260510063033 -17 5 0.0 0.0 0.00 0.00 0.00 1016.7
20260510061528 -17 355 0.0 0.0 0.00 0.00 0.00 1016.5
20260510060025 -17 119 0.0 0.0 0.00 0.00 0.00 1016.4
20260510054524 -17 355 0.0 0.0 0.00 0.00 0.00 1016.5
20260510053018 -17 348 0.0 0.0 0.00 0.00 0.00 1016.7
20260510051514 -17 26 0.0 0.0 0.00 0.00 0.00 1016.7
20260510050009 -17 9 0.0 0.0 0.00 0.00 0.00 1016.6
20260510044638 -17 36 0.0 0.0 0.00 0.00 0.00 1016.6
20260510043056 -17 74 0.0 0.0 0.00 0.00 0.00 1016.7
20260510041552 -17 355 0.0 0.0 0.00 0.00 0.00 1016.6
20260510040047 -17 355 0.0 0.0 0.00 0.00 0.00 1016.7
20260510034548 -17 35 0.0 0.0 0.00 0.00 0.00 1016.8
20260510033044 -17 49 0.0 0.0 0.00 0.00 0.00 1016.9
20260510031541 -17 313 0.0 0.0 0.00 0.00 0.00 1016.9
20260510030039 -17 63 0.0 0.0 0.00 0.00 0.00 1016.9
20260510024538 -17 65 0.0 0.0 0.00 0.00 0.00 1017.0
20260510023032 -17 328 0.0 0.0 0.00 0.00 0.00 1016.8
20260510021529 -17 16 0.0 0.0 0.00 0.00 0.00 1016.9
20260510020027 -17 26 0.0 0.0 0.00 0.00 0.00 1017.0
20260510014514 -17 346 0.0 0.0 0.00 0.00 0.00 1017.0
20260510013010 -17 304 0.0 0.0 0.00 0.00 0.00 1017.1
20260510011509 -17 22 0.0 0.0 0.00 0.00 0.00 1017.0
20260510010002 -17 360 0.0 0.0 0.00 0.00 0.00 1017.0
20260510004607 -17 296 0.0 0.0 0.00 0.00 0.00 1017.1
20260510003057 -17 290 0.0 0.0 0.00 0.00 0.00 1016.9
20260510001550 -17 283 0.0 0.0 0.00 0.00 0.00 1017.1
20260510000048 -17 0.0 0.0 0.00 0.00 0.00 1017.1
20260509234602 -17 0.0 0.0 0.00 0.00 0.00 1017.3
20260509233044 -17 0.0 0.0 0.00 0.00 0.00 1017.3
20260509231540 -17 0.0 0.0 0.00 0.00 0.00 1017.3
20260509230035 -17 0.0 0.0 0.00 0.00 0.00 1017.4
20260509224538 -17 0.0 0.0 0.00 0.00 0.00 1017.3
20260509223030 -17 0.0 0.0 0.00 0.00 0.00 1017.3
20260509221528 -17 61 0.0 0.0 0.00 0.00 0.00 1017.4
20260509220016 -17 61 0.0 0.0 0.00 0.00 0.00 1017.4
20260509214512 -17 59 0.0 0.0 0.00 0.00 0.00 1017.4
20260509213008 -17 75 0.0 0.0 0.00 0.00 0.00 1017.5
20260509211504 -17 75 0.0 0.0 0.00 0.00 0.00 1017.5
20260509210100 -17 75 0.0 0.0 0.00 0.00 0.00 1017.3
20260509204601 -17 77 0.0 0.0 0.00 0.00 0.00 1017.2
20260509203114 -17 77 0.0 0.0 0.00 0.00 0.00 1017.2
20260509201556 -17 77 0.0 0.0 0.00 0.00 0.00 1017.2
20260509200053 -17 77 0.0 0.0 0.00 0.00 0.00 1017.0
20260509194540 -17 77 0.0 0.0 0.00 0.00 0.00 1017.0
20260509193035 -17 82 0.0 0.0 0.00 0.00 0.00 1016.7
20260509191534 -17 355 0.0 0.0 0.00 0.00 0.00 1016.7
20260509190027 -17 27 0.0 0.0 0.00 0.00 0.00 1016.7
20260509184526 -17 13 0.0 0.0 0.00 0.00 0.00 1016.7
20260509183015 -17 53 0.0 0.0 0.00 0.00 0.00 1016.7
20260509181509 -17 51 0.0 0.0 0.00 0.00 0.00 1016.7
20260509180006 -17 28 0.0 0.0 0.00 0.00 0.00 1016.5
20260509174512 -17 44 0.0 0.0 0.00 0.00 0.00 1016.6
20260509173006 -17 22 0.0 0.0 0.00 0.00 0.00 1016.4
20260509171502 -17 5 0.0 0.0 0.00 0.00 0.00 1016.5
20260509170100 -17 82 0.0 0.0 0.00 0.00 0.00 1016.5
20260509164600 -17 49 0.0 0.0 0.00 0.00 0.00 1016.6
20260509163045 -17 55 0.0 0.0 0.00 0.00 0.00 1016.5
20260509161545 -17 5 0.0 0.0 0.00 0.00 0.00 1016.6
20260509160038 -17 49 0.0 0.0 0.00 0.00 0.00 1016.8
20260509154540 -17 41 0.0 0.0 0.00 0.00 0.00 1016.9
20260509153038 -17 5 0.0 0.0 0.00 0.00 0.00 1017.0
20260509151532 -17 117 0.0 0.0 0.00 0.00 0.00 1017.0
20260509150028 -17 90 0.0 0.0 0.00 0.00 0.00 1016.8
20260509144529 -17 59 0.0 0.0 0.00 0.00 0.00 1016.8
20260509143017 -17 27 0.0 0.0 0.00 0.00 0.00 1016.6
20260509141511 -17 68 0.0 0.0 0.00 0.00 0.00 1016.5
20260509140006 -17 83 0.0 0.0 0.00 0.00 0.00 1016.6
20260509134601 -17 86 0.0 0.0 0.00 0.00 0.00 1016.6
20260509133103 -17 71 0.0 0.0 0.00 0.00 0.00 1016.7
20260509131556 -17 343 0.0 0.0 0.00 0.00 0.00 1016.7
20260509130059 -17 63 0.0 0.0 0.00 0.00 0.00 1016.9
20260509124546 -17 329 0.0 0.0 0.00 0.00 0.00 1017.0
20260509123049 -17 73 0.0 0.0 0.00 0.00 0.00 1017.1
20260509121537 -17 49 0.0 0.0 0.00 0.00 0.00 1017.1
20260509120035 -17 36 0.0 0.0 0.00 0.00 0.00 1017.3
20260509114538 -17 340 0.0 0.0 0.00 0.00 0.00 1017.3